This is the latest recevied weather packets stored in our database for station/object WB4FAY-4. If no packets are shown the sender has not sent any weather packets the latest 1 day(s).
| Time | Temp. | Humidity | Pressure | Rain* | Wind** | Luminosity | Snow |
|---|---|---|---|---|---|---|---|
| 1778119817 | 20.56° C | 96% | 1012.8 hPa | 0 mm | - | - | - |
| 1778119518 | 20.56° C | 96% | 1012.5 hPa | 0 mm | - | - | - |
| 1778119217 | 21.11° C | 96% | 1012.5 hPa | 0 mm | - | - | - |
| 1778118918 | 21.11° C | 96% | 1013 hPa | 0 mm | - | - | - |
| 1778118318 | 22.22° C | 96% | 1012.7 hPa | 0 mm | - | - | - |
| 1778118017 | 22.22° C | 96% | 1012.5 hPa | 0 mm | - | - | - |
| 1778117718 | 22.78° C | 97% | 1012.1 hPa | 0 mm | - | - | - |
| 1778117118 | 22.78° C | 97% | 1012.1 hPa | 0 mm | - | - | - |
| 1778116817 | 22.78° C | 97% | 1011.8 hPa | 0 mm | - | - | - |
| 1778116518 | 22.78° C | 97% | 1012.1 hPa | 0 mm | - | - | - |
| 1778116217 | 22.78° C | 97% | 1011.5 hPa | 0 mm | - | - | - |
| 1778115317 | 22.78° C | 96% | 1011.4 hPa | 0 mm | - | - | - |
| 1778114717 | 22.78° C | 96% | 1012 hPa | 0 mm | - | - | - |
| 1778114418 | 22.78° C | 96% | 1012.1 hPa | 0 mm | - | - | - |
| 1778114117 | 22.78° C | 96% | 1012 hPa | 0 mm | - | - | - |
| 1778113218 | 22.78° C | 96% | 1011.5 hPa | 0 mm | - | - | - |
| 1778112618 | 22.78° C | 96% | 1011.8 hPa | 0 mm | - | - | - |
| 1778111118 | 22.78° C | 96% | 1011.4 hPa | 0 mm | - | - | - |
| 1778109617 | 23.33° C | 96% | 1012.4 hPa | 0 mm | - | - | - |
| 1778109018 | 23.33° C | 96% | 1012.5 hPa | 0 mm | - | - | - |
| 1778108417 | 22.78° C | 96% | 1012.6 hPa | 0 mm | - | - | - |
| 1778107517 | 22.78° C | 96% | 1012.4 hPa | 0 mm | - | - | - |
| 1778106918 | 22.78° C | 96% | 1012 hPa | 0 mm | - | - | - |
| 1778106318 | 22.78° C | 96% | 1012.2 hPa | 0 mm | - | - | - |
| 1778105118 | 22.78° C | 96% | 1012.4 hPa | 0 mm | - | - | - |
* Rain latest 24 hours (hover to see other rain measurements)
** Current wind speed in m/s (hover to see current wind gust speed)